LUCH 5V (SDCM/PRN 141)

Last updated on May 21, 2019, 3:11 a.m. UTC

1 39727U 14023A   19140.50562631 -.00000278  00000-0  00000+0 0  9998
2 39727   1.2750 303.3949 0003989 127.2421  83.9938  1.00269966536603
UTC
Height (km)
Latitude
Longitude
Inclination
Orbital Period
UTC large
Height (km)
Speed (km/s)
/
Latitude / Longitude
Inclination (degrees)
Orbital Period (minutes)
Azimuth
Elevation
Range (km)
Doppler Factor
iOS Compass Heading
iOS Angle

Next 30 passes for location: Hong Kong

Rise time Rise Azimuth (degrees) Set time Set Azimuth (degrees) Duration Max altitude (degrees)

No matching passes for this satellites